Weather History for Centralia, IL

Change the Weather History Date:

Wednesday, November 28, 2012

  Actual Average (KSLO) Record (KSLO)
Temperature  
Mean Temperature 36 °F -  
Max Temperature 47 °F 47 °F 70 °F (1990)
Min Temperature 26 °F 30 °F 12 °F (1977)
Degree Days  
Heating Degree Days 28    
Moisture  
Dew Point 26 °F    
Average Humidity 72    
Maximum Humidity 93    
Minimum Humidity 42    
Precipitation  
Precipitation 0.00 in - - ()
Sea Level Pressure  
Sea Level Pressure 30.38 in    
Wind  
Wind Speed 2 mph (South)    
Max Wind Speed 8 mph    
Max Gust Speed -    
Visibility 9 miles    
Events      
Averages and records for this station are not official NWS values.
T = Trace of Precipitation, MM = Missing Value Source: NWS Daily Summary

Daily Weather History Graph

Daily Weather History Graph

Search for Another Location

Airport:

Trip Planner

Search our weather history database for the weather conditions in past years. The results will help you decide how hot, cold, wet, or windy it might be!

Date:

Astronomy

Nov. 28, 2012 Rise Set
Actual Time 6:52 AM CST 4:36 PM CST
Civil Twilight 6:23 AM CST 5:05 PM CST
Nautical Twilight 5:50 AM CST 5:38 PM CST
Astronomical Twilight 5:18 AM CST 6:10 PM CST
Moon 4:51 PM CST (11/28) 6:49 AM CST (11/28)
Length of Visible Light 10h 42m
Length of Day
9h 43m
Full, 100% of the Moon is Illuminated
Nov 28
Full
Dec 6
Last Quarter
Dec 13
New
Dec 19
First Quarter
Dec 28
Full

Hourly Weather History & Observations

Time (CST) Temp. Windchill Dew Point Humidity Pressure Visibility Wind Dir Wind Speed Gust Speed Precip Events Conditions
12:15 AM 26.6 °F - 24.8 °F 93% 30.34 in 5.0 mi Calm Calm - N/A   Clear
12:35 AM 26.4 °F 20.9 °F 24.3 °F 92% 30.34 in 7.0 mi South 4.6 mph - N/A   Clear
12:55 AM 28.2 °F - 24.8 °F 87% 30.35 in 7.0 mi Calm Calm - N/A   Clear
1:15 AM 27.7 °F - 24.3 °F 87% 30.35 in 7.0 mi Calm Calm - N/A   Clear
1:35 AM 27.5 °F 23.6 °F 25.2 °F 91% 30.35 in 7.0 mi SW 3.5 mph - N/A   Clear
1:55 AM 27.9 °F 24.0 °F 24.4 °F 87% 30.35 in 7.0 mi SW 3.5 mph - N/A   Clear
2:15 AM 29.3 °F 24.3 °F 24.6 °F 83% 30.36 in 7.0 mi SW 4.6 mph - N/A   Clear
2:35 AM 29.3 °F 25.6 °F 25.0 °F 84% 30.36 in 7.0 mi SSW 3.5 mph - N/A   Clear
2:55 AM 28.4 °F - 24.3 °F 84% 30.36 in 7.0 mi Calm Calm - N/A   Clear
3:15 AM 28.0 °F 24.2 °F 24.1 °F 85% 30.36 in 7.0 mi SW 3.5 mph - N/A   Clear
3:35 AM 30.2 °F 25.4 °F 24.4 °F 79% 30.36 in 10.0 mi SW 4.6 mph - N/A   Clear
3:55 AM 29.3 °F 25.6 °F 24.3 °F 81% 30.36 in 7.0 mi SW 3.5 mph - N/A   Clear
4:15 AM 29.7 °F 26.1 °F 24.6 °F 81% 30.37 in 7.0 mi SW 3.5 mph - N/A   Clear
4:35 AM 29.5 °F 24.5 °F 24.6 °F 82% 30.37 in 7.0 mi SW 4.6 mph - N/A   Clear
4:55 AM 28.9 °F 21.9 °F 24.1 °F 82% 30.37 in 7.0 mi SW 6.9 mph - N/A   Clear
5:15 AM 28.4 °F 23.3 °F 23.9 °F 83% 30.38 in 7.0 mi SW 4.6 mph - N/A   Clear
5:35 AM 28.4 °F 23.3 °F 23.7 °F 83% 30.38 in 7.0 mi SW 4.6 mph - N/A   Clear
5:55 AM 28.2 °F - 23.9 °F 84% 30.39 in 7.0 mi Calm Calm - N/A   Clear
6:15 AM 28.4 °F - 23.9 °F 83% 30.39 in 7.0 mi Calm Calm - N/A   Clear
6:35 AM 27.5 °F - 23.7 °F 86% 30.40 in 7.0 mi Calm Calm - N/A   Clear
6:55 AM 28.2 °F 24.4 °F 24.3 °F 85% 30.41 in 7.0 mi SW 3.5 mph - N/A   Clear
7:15 AM 28.6 °F - 24.3 °F 84% 30.41 in 7.0 mi Calm Calm - N/A   Clear
7:35 AM 28.8 °F - 24.8 °F 85% 30.41 in 7.0 mi Calm Calm - N/A   Clear
7:55 AM 30.9 °F - 26.1 °F 82% 30.42 in 7.0 mi Calm Calm - N/A   Clear
8:15 AM 32.0 °F - 27.1 °F 82% 30.43 in 7.0 mi Calm Calm - N/A   Clear
8:35 AM 33.3 °F 28.9 °F 26.4 °F 76% 30.43 in 10.0 mi WSW 4.6 mph - N/A   Clear
8:55 AM 34.3 °F - 27.0 °F 74% 30.44 in 10.0 mi Calm Calm - N/A   Clear
9:15 AM 35.6 °F 32.8 °F 26.8 °F 70% 30.44 in 10.0 mi SW 3.5 mph - N/A   Clear
9:35 AM 36.7 °F - 26.4 °F 66% 30.44 in 10.0 mi Calm Calm - N/A   Clear
9:55 AM 38.3 °F 35.9 °F 26.1 °F 61% 30.45 in 10.0 mi West 3.5 mph - N/A   Clear
10:15 AM 39.6 °F - 25.9 °F 58% 30.45 in 10.0 mi Calm Calm - N/A   Clear
10:35 AM 40.8 °F - 23.9 °F 51% 30.45 in 10.0 mi Calm Calm - N/A   Clear
10:55 AM 41.5 °F - 24.6 °F 51% 30.44 in 10.0 mi Calm Calm - N/A   Clear
11:15 AM 42.1 °F - 24.1 °F 49% 30.44 in 10.0 mi Calm Calm - N/A   Clear
11:35 AM 42.3 °F - 24.6 °F 50% 30.44 in 10.0 mi Calm Calm - N/A   Clear
11:55 AM 43.5 °F - 24.8 °F 48% 30.44 in 10.0 mi Calm Calm - N/A   Clear
12:15 PM 45.0 °F - 25.7 °F 47% 30.43 in 10.0 mi Calm Calm - N/A   Unknown
12:35 PM 45.9 °F 42.9 °F 25.9 °F 46% 30.42 in 10.0 mi South 5.8 mph - N/A   Unknown
12:55 PM 45.5 °F 44.2 °F 25.0 °F 45% 30.41 in 10.0 mi South 3.5 mph - N/A   Unknown
1:15 PM 46.6 °F - 25.7 °F 44% 30.41 in 10.0 mi SSE 3.5 mph - N/A   Unknown
1:35 PM 46.8 °F - 26.1 °F 44% 30.40 in 10.0 mi WSW 3.5 mph - N/A   Clear
1:55 PM 46.9 °F - 25.0 °F 42% 30.39 in 10.0 mi Calm Calm - N/A   Clear
2:15 PM 47.5 °F - 27.7 °F 46% 30.39 in 10.0 mi SW 3.5 mph - N/A   Clear
2:35 PM 47.3 °F - 27.1 °F 46% 30.38 in 10.0 mi Calm Calm - N/A   Clear
2:55 PM 47.3 °F - 27.1 °F 46% 30.38 in 10.0 mi Calm Calm - N/A   Clear
3:15 PM 47.3 °F - 26.6 °F 45% 30.38 in 10.0 mi Calm Calm - N/A   Clear
3:35 PM 46.8 °F - 27.1 °F 46% 30.38 in 10.0 mi Calm Calm - N/A   Clear
3:55 PM 45.9 °F 43.6 °F 30.0 °F 54% 30.38 in 10.0 mi South 4.6 mph - N/A   Clear
4:15 PM 44.6 °F 42.2 °F 31.3 °F 60% 30.37 in 10.0 mi South 4.6 mph - N/A   Clear
4:35 PM 43.3 °F - 31.3 °F 62% 30.37 in 10.0 mi Calm Calm - N/A   Clear
4:55 PM 41.9 °F - 30.7 °F 65% 30.37 in 10.0 mi Calm Calm - N/A   Clear
5:15 PM 40.1 °F - 30.2 °F 68% 30.37 in 10.0 mi Calm Calm - N/A   Clear
5:35 PM 37.4 °F - 30.6 °F 76% 30.38 in 10.0 mi Calm Calm - N/A   Clear
5:55 PM 34.2 °F 31.2 °F 29.1 °F 82% 30.38 in 10.0 mi SSE 3.5 mph - N/A   Clear
6:15 PM 35.8 °F - 28.9 °F 76% 30.38 in 10.0 mi Calm Calm - N/A   Clear
6:35 PM 33.3 °F - 28.8 °F 84% 30.37 in 10.0 mi Calm Calm - N/A   Clear
6:55 PM 33.3 °F 30.2 °F 28.6 °F 83% 30.37 in 10.0 mi SE 3.5 mph - N/A   Clear
7:15 PM 32.2 °F 28.9 °F 28.9 °F 88% 30.37 in 10.0 mi SE 3.5 mph - N/A   Clear
7:35 PM 31.8 °F - 27.5 °F 84% 30.37 in 10.0 mi Calm Calm - N/A   Clear
7:55 PM 32.0 °F 27.5 °F 27.5 °F 83% 30.37 in 10.0 mi SE 4.6 mph - N/A   Clear
8:15 PM 32.0 °F 26.4 °F 27.5 °F 83% 30.36 in 10.0 mi SSE 5.8 mph - N/A   Clear
8:35 PM 31.6 °F 27.0 °F 27.5 °F 85% 30.36 in 10.0 mi SSE 4.6 mph - N/A   Clear
8:55 PM 34.0 °F 29.8 °F 27.0 °F 75% 30.36 in 10.0 mi SSE 4.6 mph - N/A   Clear
9:15 PM 32.9 °F 27.5 °F 26.6 °F 78% 30.35 in 10.0 mi SE 5.8 mph - N/A   Clear
9:35 PM 33.8 °F 28.6 °F 26.4 °F 74% 30.36 in 10.0 mi SE 5.8 mph - N/A   Clear
9:55 PM 33.1 °F 28.7 °F 26.4 °F 77% 30.35 in 10.0 mi SE 4.6 mph - N/A   Clear
10:15 PM 34.0 °F 28.8 °F 26.4 °F 74% 30.34 in 10.0 mi SE 5.8 mph - N/A   Clear
10:35 PM 33.6 °F 27.5 °F 26.2 °F 74% 30.34 in 10.0 mi SE 6.9 mph - N/A   Clear
10:55 PM 34.7 °F 28.1 °F 27.0 °F 73% 30.34 in 10.0 mi SE 8.1 mph - N/A   Clear
11:15 PM 34.5 °F 28.6 °F 27.1 °F 74% 30.34 in 10.0 mi SSE 6.9 mph - N/A   Clear
11:35 PM 34.0 °F 28.0 °F 27.0 °F 75% 30.34 in 10.0 mi SSE 6.9 mph - N/A   Clear
11:55 PM 34.0 °F 27.2 °F 27.3 °F 77% 30.34 in 10.0 mi SSE 8.1 mph - N/A   Clear